"Pseudo-MPEC" for P22oZGp

Created 2026 Aug 8 15:35:12 UT using Find_Orb

Click here for an explanation of pseudo-MPECs

 
 Astrometry: 
     P22oZGp*0C2026 08 08.56353800 08 46.431-12 59 30.40   ~88FZ 20.79wXNEOCPF52
     P22oZGp 0C2026 08 08.57444800 08 46.864-12 59 22.40   ~88FZ 20.99wXNEOCPF52
     P22oZGp 0C2026 08 08.58529100 08 47.283-12 59 14.34   ~88FZ 20.99wXNEOCPF52
     P22oZGp 0C2026 08 08.59611900 08 47.719-12 59 06.18   ~88FZ 20.99wXNEOCPF52

Station data:
(F52) Pan-STARRS 2, Haleakala  (N20.707382 W156.255910)  US/Hawaii.
   Observers J. Herman, T. Lowe, P. Minguez, A. Schultz, I. Smith. Measurers
   K. Chambers, T. de Boer, J. Fairlamb, H. Gao, M. Huber, C.-C. Lin, E.
   Magnier, Y. Ramanjooloo, R. Wainscoat, R. Weryk. 1.8-m Ritchey-Chrétien +
   CCD.

Orbital elements:  P22oZGp
   Perihelion 2026 Sep 8.448392 +/- 42.2 TT = 10:45:41.0 (JD 2461291.948392)
Epoch 2026 Aug  9.0 TT = JDT 2461261.5   Earth MOID: 0.2993   Ma: 0.0740
M 346.222967454 +/- 34              (J2000 ecliptic)             AutoNEOCP
n   0.452471603 +/- 0.415           Peri.  347.249001 +/- 90
a   1.680383841 +/- 1.03            Node     1.404800 +/- 37
e   0.22362103 +/- 0.257            Incl.    6.412690 +/- 16
P   2.178/795.615d         H 20.94  G  0.15   U 12.1  SR
q 1.304614669 +/- 0.522    Q 2.056153014 +/- 38.2
From 4 observations 2026 Aug. 8 (46.9 min); mean residual 0".05
Residuals in arcseconds: 
260808 F52  .00   .04+    260808 F52  .08-  .04-    
260808 F52  .04+  .04-    260808 F52  .04+  .04+    

Ephemerides (geocentric):
Date (UTC) HH   RA             Dec           delta  r     elong  mag " sig PA
---- --------  ------------   ------------  ------ ------ -----  --- --------
2026 08 08 16  00 08 51.459   -12 58 01.55  .38447 1.3227 137.4 20.8  111 131
2026 08 08 17  00 08 53.470   -12 57 30.70  .38431 1.3227 137.4 20.8  138 122
2026 08 08 18  00 08 55.475   -12 56 59.84  .38414 1.3226 137.4 20.8  168 115
2026 08 08 19  00 08 57.475   -12 56 28.97  .38398 1.3226 137.5 20.8  199 111
2026 08 08 20  00 08 59.470   -12 55 58.10  .38382 1.3225 137.5 20.8  233 108
2026 08 08 21  00 09 01.460   -12 55 27.21  .38365 1.3225 137.5 20.8  268 106
2026 08 08 22  00 09 03.444   -12 54 56.31  .38349 1.3224 137.5 20.8  305 104
2026 08 08 23  00 09 05.423   -12 54 25.41  .38333 1.3224 137.6 20.8  344 103
2026 08 09 00  00 09 07.397   -12 53 54.49  .38316 1.3223 137.6 20.8  385 102
2026 08 09 01  00 09 09.365   -12 53 23.57  .38300 1.3223 137.6 20.8  429 102
2026 08 09 02  00 09 11.329   -12 52 52.63  .38284 1.3222 137.7 20.8  476 101
2026 08 09 03  00 09 13.287   -12 52 21.69  .38267 1.3222 137.7 20.8  528 101
2026 08 09 04  00 09 15.239   -12 51 50.74  .38251 1.3221 137.7 20.8  586 101
2026 08 09 05  00 09 17.187   -12 51 19.77  .38235 1.3221 137.7 20.8  651 101
2026 08 09 06  00 09 19.129   -12 50 48.80  .38218 1.3220 137.8 20.8  727 101
2026 08 09 07  00 09 21.065   -12 50 17.82  .38202 1.3220 137.8 20.8  817 102
2026 08 09 08  00 09 22.997   -12 49 46.82  .38186 1.3220 137.8 20.8  927 102
2026 08 09 09  00 09 24.923   -12 49 15.82  .38170 1.3219 137.9 20.8 1069 103
2026 08 09 10  00 09 26.844   -12 48 44.81  .38154 1.3219 137.9 20.8 1259 104
2026 08 09 11  00 09 28.765   -12 48 13.77  .38137 1.3218 137.9 20.8 1532 105
2026 08 09 12  00 09 30.693   -12 47 42.70  .38121 1.3218 137.9 20.8 1958 106
2026 08 09 13  00 09 32.628   -12 47 11.58  .38105 1.3217 138.0 20.8 2719 107
2026 08 09 14  00 09 34.570   -12 46 40.42  .38089 1.3217 138.0 20.8 4417 108
2026 08 09 15  00 09 36.519   -12 46 09.22  .38072 1.3216 138.0 20.8 180' 110
2026 08 09 16  00 09 38.476   -12 45 37.98  .38056 1.3216 138.1 20.8 812' 105
2026 08 09 17  00 09 40.439   -12 45 06.70  .38040 1.3215 138.1 20.8 983' 101
2026 08 09 18  00 09 42.409   -12 44 35.37  .38023 1.3215 138.1 20.8  17d 100
2026 08 09 19  00 09 44.387   -12 44 04.01  .38007 1.3214 138.1 20.8  17d  99
2026 08 09 20  00 09 46.371   -12 43 32.60  .37990 1.3214 138.2 20.8  17d  99
2026 08 09 21  00 09 48.363   -12 43 01.15  .37974 1.3213 138.2 20.8  17d  99
2026 08 09 22  00 09 50.362   -12 42 29.66  .37957 1.3213 138.2 20.8  18d  99
2026 08 09 23  00 09 52.367   -12 41 58.13  .37941 1.3212 138.3 20.8  18d  99
2026 08 10 00  00 09 54.375   -12 41 26.57  .37925 1.3212 138.3 20.8  21d 102
2026 08 10 01  00 09 56.377   -12 40 55.00  .37908 1.3211 138.3 20.8  23d 100
2026 08 10 02  00 09 58.374   -12 40 23.41  .37892 1.3211 138.3 20.8  24d 100
2026 08 10 03  00 10 00.366   -12 39 51.82  .37875 1.3210 138.4 20.8  24d  99
2026 08 10 04  00 10 02.353   -12 39 20.21  .37859 1.3210 138.4 20.8  24d  99
2026 08 10 05  00 10 04.334   -12 38 48.60  .37842 1.3209 138.4 20.8  25d  99
2026 08 10 06  00 10 06.310   -12 38 16.97  .37826 1.3208 138.5 20.7  25d  99
2026 08 10 07  00 10 08.281   -12 37 45.33  .37809 1.3208 138.5 20.7  25d  99
2026 08 10 08  00 10 10.247   -12 37 13.68  .37793 1.3207 138.5 20.7  25d  99
2026 08 10 09  00 10 12.208   -12 36 42.01  .37777 1.3207 138.5 20.7  25d  99
2026 08 10 10  00 10 14.163   -12 36 10.34  .37760 1.3206 138.6 20.7  25d  99
2026 08 10 11  00 10 16.114   -12 35 38.65  .37744 1.3206 138.6 20.7  25d  99
2026 08 10 12  00 10 18.059   -12 35 06.96  .37728 1.3205 138.6 20.7  25d  99
2026 08 10 13  00 10 19.998   -12 34 35.25  .37711 1.3205 138.7 20.7  25d  99
2026 08 10 14  00 10 21.933   -12 34 03.53  .37695 1.3204 138.7 20.7  25d  99
2026 08 10 15  00 10 23.862   -12 33 31.79  .37679 1.3204 138.7 20.7  25d  99